Helicity
347 371 392 352 262 179 191 157 166 166 163 155 149 123 102 73 75 55 58 54 65 83 97 102 122 139 150 170 186 165 203 166 195 96 115 106 120 179 188 192 166 189 174
402 427 456 365 238 185 190 162 149 169 173 132 104 74 64 74 45 37 36 36 45 60 73 92 101 114 113 143 169 183 152 127 180 110 73 116 156 209 222 270 298 309 254
485 514 497 377 271 195 172 158 172 185 162 128 97 100 83 54 42 38 30 36 44 69 87 102 106 112 110 121 149 177 194 161 157 199 149 166 155 149 188 259 254 279 263
464 513 518 406 290 218 204 186 197 178 152 128 136 131 79 49 33 31 38 52 61 77 80 78 94 110 121 136 144 152 166 172 179 206 256 212 175 125 160 226 204 184 147
549 609 506 351 273 224 215 187 201 190 157 144 118 99 84 46 30 44 60 66 72 80 104 113 123 124 119 142 163 171 167 158 158 166 160 197 220 167 150 98 131 164 148
617 610 485 378 316 261 238 211 218 215 182 151 116 90 76 59 54 56 57 49 53 73 99 87 92 109 130 144 146 166 163 170 165 158 167 175 184 247 242 165 103 59 90
695 635 527 417 327 278 240 233 222 212 182 156 126 100 81 72 58 59 56 58 61 57 80 69 69 65 84 105 124 149 143 133 135 145 144 153 186 176 153 143 82 41 -23
621 571 458 347 321 284 240 224 223 204 178 155 135 110 92 66 60 71 69 65 62 67 70 74 75 75 82 86 107 109 94 96 93 136 133 167 203 184 170 132 89 6 11
580 556 438 357 344 278 230 196 222 188 167 148 139 120 103 93 90 107 107 90 90 90 98 99 107 117 116 117 87 74 76 63 65 82 107 131 163 151 139 128 116 77 -3
541 513 387 341 316 263 212 211 202 183 159 154 145 135 122 111 116 125 111 116 118 126 119 119 133 140 116 100 70 60 59 46 47 47 64 85 117 118 69 83 104 103 94
493 464 406 331 277 259 196 205 191 168 169 158 150 152 128 118 130 147 146 138 134 131 123 121 128 137 136 106 87 56 76 54 55 73 68 82 68 63 59 66 94 125 107
457 429 374 320 266 210 197 184 168 148 144 169 169 140 125 149 184 191 159 149 137 121 118 128 142 142 126 104 74 61 51 61 72 81 70 106 85 71 41 24 62 81 58
397 396 334 265 246 216 189 176 131 131 178 202 193 184 178 190 201 183 155 149 133 134 131 145 156 138 103 72 59 57 53 61 70 63 69 98 85 90 44 42 47 65 34
334 316 281 276 240 199 159 133 107 141 207 228 225 216 198 201 193 175 167 161 145 137 129 137 126 95 84 79 70 61 57 58 60 55 58 68 66 64 45 51 50 42 26
230 276 285 267 311 290 183 143 158 182 207 246 233 228 227 215 198 189 173 160 152 134 115 121 103 84 66 66 57 53 51 54 46 46 43 52 44 60 63 23 44 38 38
229 298 276 332 275 230 235 242 247 197 239 220 234 221 224 211 188 173 169 166 147 110 105 105 94 107 80 89 67 57 45 55 57 46 39 41 62 38 59 62 72 53 22
212 282 352 315 348 442 440 361 287 234 252 264 241 234 210 197 173 166 175 161 119 97 95 106 105 100 73 64 60 62 36 34 35 37 27 44 47 44 27 37 45 57 62
187 238 332 359 392 453 513 570 367 260 301 280 275 245 214 194 179 184 177 128 111 108 95 97 80 61 56 56 57 61 40 40 33 11 3 1 38 73 35 24 30 32 25
190 267 384 483 559 538 539 426 372 334 265 281 265 221 215 194 177 182 130 108 125 127 121 90 66 50 50 68 56 44 58 83 85 55 -35 -3 20 82 85 51 45 46 52
191 433 548 601 514 453 536 495 398 288 262 250 226 206 181 182 179 144 116 107 112 105 116 134 111 73 23 62 65 54 45 74 63 74 90 59 16 56 66 25 32 36 30
289 473 536 473 464 489 484 425 316 254 249 238 230 194 186 187 165 150 120 110 108 110 122 132 133 114 63 24 57 68 42 26 34 39 32 21 56 52 53 50 16 16 -2
293 382 445 417 376 404 432 376 301 285 273 246 228 207 196 177 154 136 127 108 91 93 94 102 107 98 85 72 52 61 66 73 25 11 30 24 64 61 66 36 65 63 25
251 291 344 350 357 357 370 351 328 316 276 242 226 206 198 183 163 142 137 111 77 68 68 70 68 59 60 50 68 81 76 90 61 28 53 75 78 78 48 87 88 58 52
220 271 319 352 361 333 330 352 335 267 260 231 225 222 223 202 160 146 135 114 70 60 50 51 59 51 58 52 66 78 69 82 83 70 65 65 68 59 51 53 63 43 37
200 220 272 326 360 365 358 355 327 267 236 232 237 221 206 181 151 143 119 100 67 59 50 47 43 58 41 2 32 59 73 74 49 79 78 73 61 57 59 49 38 36 40
189 233 271 325 344 350 345 322 277 245 238 246 223 211 200 168 154 165 147 86 77 75 67 60 34 32 46 91 95 92 100 88 77 75 60 61 55 47 47 52 52 54 49
Wind_Speed
19 17 23 23 24 29 33 36 37 37 34 31 32 35 38 41 44 47 50 52 56 58 59 59 61 62 63 67 68 69 74 71 80 76 76 68 67 65 58 56 55 54 54
20 18 19 24 26 26 30 34 34 35 34 31 32 33 34 39 42 46 50 53 56 58 59 61 63 65 67 68 70 71 73 69 74 75 72 76 63 62 58 53 51 49 46
24 18 22 24 22 23 25 27 30 33 34 33 30 31 34 39 45 49 51 53 56 58 60 61 63 66 67 70 69 68 69 70 65 67 61 69 67 73 58 57 55 54 49
28 21 20 21 20 20 20 23 27 31 34 33 33 34 37 41 45 48 50 53 56 59 60 62 64 65 66 68 66 64 62 62 66 61 61 60 65 70 75 55 56 58 59
31 26 21 16 16 13 15 19 24 31 33 33 33 34 37 39 42 47 51 55 58 59 62 63 63 64 63 64 63 64 63 60 60 62 64 66 67 66 71 82 70 69 64
35 27 21 17 14 12 13 17 23 30 32 33 34 34 37 40 44 49 52 54 57 60 63 62 62 62 63 62 61 62 63 61 58 59 61 62 65 69 70 76 82 80 67
33 29 24 20 15 12 12 17 22 27 30 32 34 36 38 40 44 47 50 52 57 60 63 62 62 61 59 59 59 60 59 60 57 58 60 58 60 64 66 74 80 77 69
34 31 26 22 17 12 12 16 21 24 27 30 33 35 38 41 44 46 49 52 56 59 61 60 60 60 58 57 58 57 55 57 56 57 58 57 60 62 63 67 72 76 68
36 34 27 23 18 13 13 15 18 22 25 29 32 35 37 40 43 45 48 53 54 55 59 57 58 58 58 57 55 55 56 57 56 57 57 56 57 58 58 57 56 60 63
33 32 27 23 19 14 13 16 19 22 23 25 28 32 36 39 41 45 50 51 52 56 58 57 57 58 56 56 53 53 53 55 55 55 57 57 56 56 54 53 50 50 54
34 31 27 19 15 14 16 18 20 22 24 24 26 27 32 36 39 42 45 47 50 53 56 55 55 55 56 55 53 50 51 52 53 55 55 56 56 53 51 51 47 46 48
30 27 25 19 18 19 20 20 19 22 22 23 24 25 29 31 36 40 42 44 48 51 52 53 52 53 53 54 52 49 48 50 52 54 54 54 53 50 49 46 43 42 42
29 26 24 23 23 22 21 21 19 19 20 18 19 23 27 31 35 38 39 43 46 50 51 50 51 51 49 51 50 48 47 47 49 51 53 52 51 49 47 45 41 41 38
30 28 25 26 27 25 21 19 21 16 16 15 18 22 25 28 32 35 38 42 46 47 46 47 48 48 48 47 46 46 46 47 47 48 51 50 49 47 44 44 43 41 40
33 31 29 29 26 24 21 22 18 16 13 15 18 20 23 28 30 34 38 41 43 43 44 44 44 46 45 44 44 44 45 46 46 47 49 50 46 45 44 41 43 43 42
34 32 28 25 28 23 18 15 17 19 10 13 16 18 21 24 26 31 35 37 38 40 41 41 42 44 43 44 42 42 42 44 45 46 47 49 48 44 43 43 43 45 44
31 33 34 29 27 20 19 21 17 9 6 11 13 17 20 23 25 28 32 33 34 37 38 40 41 41 41 41 41 41 41 42 45 46 46 48 49 47 46 46 46 46 48
35 35 36 33 33 19 13 11 15 17 14 12 16 16 19 20 22 26 29 29 32 34 36 38 39 38 38 39 39 40 41 42 44 46 46 46 47 48 45 45 46 47 48
41 36 31 29 25 18 14 14 17 16 12 17 16 16 14 14 18 22 22 25 30 31 34 36 37 38 38 37 39 39 41 43 45 46 47 47 46 47 47 44 46 47 49
33 24 21 15 14 16 14 14 17 21 23 19 13 10 9 11 14 16 18 23 26 28 30 33 36 35 36 36 38 39 40 43 45 46 46 48 46 46 47 47 48 49 51
26 17 13 13 13 14 13 16 16 17 16 10 8 7 7 8 9 13 16 20 22 25 28 30 32 34 36 34 37 39 40 41 43 45 47 47 47 48 48 50 51 52 52
16 11 11 11 11 13 12 12 12 10 9 7 6 5 6 7 7 8 13 16 19 23 26 26 28 32 34 36 35 37 39 41 42 44 46 47 49 49 51 51 53 55 56
16 14 11 9 9 9 10 9 7 5 5 3 3 4 5 7 6 6 7 12 16 20 22 24 26 29 33 34 35 36 39 41 43 44 46 48 49 51 52 56 57 59 61
12 7 5 4 6 6 7 6 3 2 2 2 1 3 4 5 6 6 6 7 12 16 19 22 25 28 31 31 33 35 37 40 43 44 47 49 50 53 55 57 60 62 63
16 10 9 9 8 6 6 4 4 4 5 4 1 2 4 4 6 9 6 8 12 13 14 20 24 26 30 28 31 34 36 38 41 43 47 50 53 55 57 59 61 64 66
14 14 11 10 10 9 9 9 9 8 7 6 4 1 2 4 8 7 11 13 11 12 15 20 25 29 28 29 32 34 37 38 40 44 48 52 55 57 59 61 64 67 69
Wind_Direction
286 303 311 325 334 341 343 342 340 339 339 339 339 337 340 343 345 345 344 343 341 340 339 337 334 333 331 328 328 325 323 319 318 313 310 308 302 300 299 300 301 304 303
272 290 303 314 321 337 341 341 344 343 342 339 337 336 341 345 346 344 345 347 346 344 342 339 335 334 330 328 328 327 323 321 322 313 312 305 305 302 298 299 302 306 310
260 273 291 303 316 331 341 347 352 353 350 346 343 342 342 340 339 341 344 347 348 347 345 343 340 336 334 329 329 329 325 320 322 322 314 307 303 301 298 294 295 300 305
266 270 281 292 306 325 339 349 355 353 348 348 345 342 338 336 339 342 345 346 349 347 346 341 339 338 336 334 334 334 330 326 320 318 315 312 305 297 292 298 296 298 298
256 259 266 277 300 320 339 351 353 351 349 347 347 347 345 345 345 346 345 345 346 346 345 344 342 340 339 338 337 333 330 328 323 319 315 310 306 300 293 288 291 295 296
259 257 263 270 285 306 327 338 343 345 347 348 348 347 346 345 344 344 345 346 347 347 346 346 345 344 342 342 339 334 330 327 326 323 319 315 307 301 298 292 291 291 293
252 245 241 248 265 276 303 324 335 340 344 346 347 348 347 347 346 346 347 348 348 348 347 348 348 348 349 347 342 337 333 330 329 327 323 322 316 309 303 296 291 288 291
250 238 233 241 251 259 290 313 329 338 344 346 347 348 348 347 348 349 349 348 349 349 349 350 352 352 352 351 349 344 340 335 334 332 332 329 323 315 307 299 295 289 288
243 236 238 246 253 259 284 306 326 335 339 342 345 346 348 348 348 349 351 349 350 351 352 354 354 353 352 353 351 345 341 340 339 338 339 335 330 324 316 308 303 293 288
237 235 236 243 257 270 290 309 319 325 333 339 341 343 345 346 349 351 351 354 356 355 354 353 353 353 354 354 351 347 342 343 344 344 348 343 337 331 323 315 312 300 294
235 233 241 239 250 276 286 301 311 318 325 332 338 343 345 349 353 354 358 360 359 357 356 356 355 355 354 354 353 349 346 345 345 346 347 345 348 338 326 321 320 311 304
238 235 236 235 256 270 285 295 305 313 322 331 336 341 344 355 358 359 1 2 360 358 359 358 356 355 356 357 354 353 349 348 346 346 344 346 345 336 339 330 322 317 315
240 237 238 247 262 272 279 287 296 309 321 332 340 344 348 354 356 360 2 2 360 359 358 358 358 357 0 359 358 355 354 351 351 350 347 346 340 337 334 330 321 322 313
245 246 251 262 268 272 274 279 287 298 320 330 335 342 347 354 359 1 1 360 358 358 1 360 360 2 4 3 360 357 355 353 350 348 350 347 342 336 331 331 327 322 322
251 254 262 270 268 269 263 272 273 282 303 320 332 341 351 354 359 360 359 360 0 4 4 6 9 7 10 5 357 354 351 351 351 347 351 351 345 343 342 335 335 336 334
256 254 254 267 256 255 253 263 274 278 297 322 335 350 355 358 359 1 1 3 7 6 11 12 13 11 15 1 354 357 351 350 349 346 348 350 350 342 345 346 346 350 345
253 252 250 254 251 244 256 270 272 274 295 323 346 349 351 350 1 4 5 7 7 10 16 13 16 19 13 359 5 2 354 352 351 352 352 352 354 355 356 356 356 356 357
256 258 263 263 264 255 236 254 267 268 288 319 331 340 341 350 3 5 10 17 10 16 16 16 17 22 15 8 6 5 359 355 352 351 354 353 354 353 354 357 358 357 353
273 268 265 263 259 246 225 248 267 277 297 312 322 328 346 358 6 12 23 17 17 20 16 19 21 24 18 9 7 4 2 1 356 354 5 1 357 355 356 355 354 354 352
283 265 260 238 227 219 201 242 266 274 287 303 321 341 357 9 16 25 27 16 22 15 14 14 11 11 17 15 8 8 11 9 5 0 355 1 1 357 356 354 352 350 344
295 278 248 236 225 213 228 253 270 278 294 313 333 350 11 17 28 34 21 29 20 15 11 14 0 3 360 11 9 7 7 8 8 6 2 357 358 358 355 355 353 351 345
304 280 267 259 225 219 228 255 268 286 306 309 328 355 9 16 38 27 32 26 19 15 16 14 0 351 348 356 9 12 10 9 10 7 2 0 1 358 359 356 355 354 353
310 299 278 257 248 227 228 244 266 289 304 308 325 348 7 28 22 57 38 11 11 16 18 11 2 352 349 355 6 14 14 11 8 7 5 2 360 358 356 356 355 353 352
313 314 285 232 243 249 252 257 245 278 232 211 278 353 19 31 9 7 359 8 11 13 10 359 350 346 348 6 7 7 7 9 8 5 1 359 358 358 356 354 353 353 352
305 296 288 276 269 262 265 235 231 183 219 222 289 356 63 2 348 321 336 342 352 12 18 350 344 347 353 11 16 15 12 10 8 5 359 355 353 352 352 352 352 352 350
303 302 298 288 280 271 263 260 249 226 219 236 241 179 80 331 312 320 318 328 352 11 358 342 340 338 353 6 7 8 10 9 7 5 1 357 355 354 352 351 350 350 348